Location: Avully
(45.9633°N, 6.0228°E)
Time: 05:37:04
(UTC+00:00)

Cosmos 2219 Rocket - Pass Details

Date: 23 May 2024
Orbit: 826 x 847 km, 71.0° (Epoch: 19 June)

Event Time Altitude Azimuth Distance (km) Brightness Sun altitude
Rises 01:49:16 0° 337° (NNW) 3,398 5.8 -16.5°
Reaches altitude 10° 01:51:51 10° 345° (NNW) 2,463 5.2 -16.3°
Maximum altitude 01:57:12 42° 56° (NE) 1,189 3.5 -15.8°
Drops below altitude 10° 02:02:33 10° 126° (SE) 2,461 4.6 -15.2°
Sets 02:05:07 0° 134° (SE) 3,394 5.3 -15.0°
